M I D A S
Marine Information and Data Acquisition System
Tripno 2316 of the Zeeleeuw from 2012-05-21 08:23:06 to 2012-05-21 13:44:45
Back to CruiseResearch ActivitiesStationsMapUnderway DataData graphs

EquipmentUnitsComments
TimeDGPSUTC
LatitudeDGPSDM.mWGS84
LongitudeDGPSDM.mWGS84
SpeedMeteo Stationm/sRelative wind speed
DirectionMeteo StationdegRelative wind direction
TemperatureMeteo Stationdeg CelciusAir temperature
PressureMeteo StationPaAtmospheric pressure
HumidityMeteo Station%Relative humidity
Missing or incorrect values are displayed as -999
Metereological data collected by the RV Zeeleeuw from 2012-05-21 06:07:44 to 2012-05-21 13:58:18
                                                                                    Next 1000 lines
Time Latitude Longitude Speed Direction Temperature Pressure Humidity
2012-05-21 06:07:54 51°13.633 2°56.019 -999 54 9.2 100490 43
2012-05-21 06:07:58 51°13.633 2°56.019 -999 19 9.2 100490 43
2012-05-21 06:08:03 51°13.633 2°56.019 -999 79 9.2 100490 43
2012-05-21 06:08:09 51°13.633 2°56.018 -999 25 9.2 100490 43
2012-05-21 06:08:14 51°13.633 2°56.018 -999 56 9.2 100490 43
2012-05-21 06:08:18 51°13.634 2°56.018 -999 23 9.2 100490 42
2012-05-21 06:08:23 51°13.634 2°56.018 -999 54 9.2 100490 42
2012-05-21 06:08:29 51°13.634 2°56.018 -999 23 9.1 100490 43
2012-05-21 06:08:34 51°13.634 2°56.018 -999 54 9.1 100490 43
2012-05-21 06:08:39 51°13.634 2°56.018 -999 24 9.2 100490 43
2012-05-21 06:08:44 51°13.635 2°56.018 -999 302 9.2 100490 43
2012-05-21 06:08:48 51°13.636 2°56.018 -999 268 9.2 100490 43
2012-05-21 06:08:54 51°13.637 2°56.018 -999 54 9.2 100490 43
2012-05-21 06:08:59 51°13.637 2°56.018 -999 23 9.2 100490 42
2012-05-21 06:09:03 51°13.636 2°56.017 -999 54 9.2 100490 42
2012-05-21 06:09:08 51°13.636 2°56.017 -999 23 9.2 100490 43
2012-05-21 06:09:13 51°13.635 2°56.017 -999 50 9.2 100490 43
2012-05-21 06:09:18 51°13.635 2°56.016 -999 266 9.2 100490 43
2012-05-21 06:09:23 51°13.635 2°56.017 -999 56 9.2 100490 43
2012-05-21 06:09:29 51°13.636 2°56.017 -999 270 9.2 100490 43
2012-05-21 06:09:33 51°13.637 2°56.017 -999 308 9.2 100490 43
2012-05-21 06:09:39 51°13.638 2°56.017 -999 25 9.2 100490 42
2012-05-21 06:09:44 51°13.638 2°56.018 -999 310 9.2 100490 42
2012-05-21 06:09:49 51°13.638 2°56.017 -999 256 9.2 100490 43
2012-05-21 06:09:53 51°13.637 2°56.017 -999 56 9.2 100490 43
2012-05-21 06:09:58 51°13.636 2°56.016 -999 24 9.2 100490 43
2012-05-21 06:10:04 51°13.635 2°56.016 -999 55 9.2 100490 43
2012-05-21 06:10:09 51°13.635 2°56.016 -999 25 9.2 100490 43
2012-05-21 06:10:14 51°13.636 2°56.016 -999 54 9.2 100490 43
2012-05-21 06:10:18 51°13.636 2°56.017 -999 23 9.2 100490 43
2012-05-21 06:10:23 51°13.637 2°56.017 -999 305 9.2 100490 43
2012-05-21 06:10:28 51°13.637 2°56.017 -999 269 9.2 100490 43
2012-05-21 06:10:33 51°13.638 2°56.018 -999 54 9.2 100490 43
2012-05-21 06:10:39 51°13.638 2°56.018 -999 23 9.2 100490 43
2012-05-21 06:10:44 51°13.639 2°56.018 -999 54 9.2 100490 43
2012-05-21 06:10:49 51°13.64 2°56.019 -999 270 9.1 100490 43
2012-05-21 06:10:54 51°13.64 2°56.019 -999 55 9.1 100490 43
2012-05-21 06:10:58 51°13.64 2°56.019 -999 25 9.1 100490 43
2012-05-21 06:11:03 51°13.641 2°56.019 -999 78 9.1 100490 43
2012-05-21 06:11:08 51°13.641 2°56.02 -999 25 9.1 100490 43
2012-05-21 06:11:13 51°13.64 2°56.02 -999 52 9.1 100490 43
2012-05-21 06:11:19 51°13.641 2°56.02 -999 266 9.1 100490 43
2012-05-21 06:11:24 51°13.64 2°56.02 -999 57 9.1 100490 43
2012-05-21 06:11:29 51°13.64 2°56.02 -999 269 9.1 100490 42
2012-05-21 06:11:33 51°13.64 2°56.02 -999 54 9.1 100490 42
2012-05-21 06:11:39 51°13.64 2°56.02 -999 24 9.1 100490 42
2012-05-21 06:11:43 51°13.64 2°56.02 -999 54 9.1 100490 42
2012-05-21 06:11:48 51°13.64 2°56.02 -999 269 9.1 100490 43
2012-05-21 06:11:54 51°13.64 2°56.021 -999 310 9.1 100490 43
2012-05-21 06:11:59 51°13.64 2°56.021 -999 25 9.1 100490 43
2012-05-21 06:12:03 51°13.64 2°56.02 -999 78 9.1 100490 43
2012-05-21 06:12:08 51°13.64 2°56.021 -999 24 9.1 100490 41
2012-05-21 06:12:13 51°13.64 2°56.021 -999 306 9.1 100490 41
2012-05-21 06:12:19 51°13.64 2°56.021 -999 25 9.1 100490 43
2012-05-21 06:12:24 51°13.641 2°56.021 -999 309 9.1 100490 43
2012-05-21 06:12:29 51°13.641 2°56.021 -999 270 9.1 100490 43
2012-05-21 06:12:33 51°13.64 2°56.02 -999 54 9.1 100490 43
2012-05-21 06:12:39 51°13.64 2°56.021 -999 24 9.1 100490 43
2012-05-21 06:12:44 51°13.64 2°56.02 -999 54 9.1 100490 43
2012-05-21 06:12:49 51°13.64 2°56.02 -999 24 9.2 100490 43
2012-05-21 06:12:53 51°13.639 2°56.02 -999 54 9.2 100490 43
2012-05-21 06:12:59 51°13.639 2°56.02 -999 270 9.1 100490 43
2012-05-21 06:13:04 51°13.639 2°56.02 -999 59 9.1 100490 43
2012-05-21 06:13:09 51°13.639 2°56.02 -999 25 9.2 100490 43
2012-05-21 06:13:13 51°13.639 2°56.02 -999 54 9.2 100490 43
2012-05-21 06:13:18 51°13.639 2°56.02 -999 23 9.2 100490 43
2012-05-21 06:13:24 51°13.639 2°56.02 -999 306 9.2 100490 43
2012-05-21 06:13:29 51°13.639 2°56.02 -999 23 9.2 100490 43
2012-05-21 06:13:34 51°13.639 2°56.02 -999 54 9.2 100490 43
2012-05-21 06:13:39 51°13.639 2°56.02 -999 23 9.2 100490 43
2012-05-21 06:13:44 51°13.639 2°56.02 -999 57 9.2 100490 43
2012-05-21 06:13:49 51°13.639 2°56.02 -999 262 9.1 100490 43
2012-05-21 06:13:53 51°13.639 2°56.02 -999 54 9.1 100490 43
2012-05-21 06:13:59 51°13.639 2°56.02 -999 23 9.2 100490 42
2012-05-21 06:14:04 51°13.638 2°56.02 -999 287 9.2 100490 42
2012-05-21 06:14:09 51°13.638 2°56.02 -999 268 9.2 100490 43
2012-05-21 06:14:13 51°13.638 2°56.02 -999 306 9.2 100490 43
2012-05-21 06:14:18 51°13.638 2°56.02 -999 26 9.2 100490 40
2012-05-21 06:14:23 51°13.639 2°56.02 -999 54 9.2 100490 40
2012-05-21 06:14:28 51°13.639 2°56.02 -999 25 9.2 100490 43
2012-05-21 06:14:33 51°13.639 2°56.02 -999 54 9.2 100490 43
2012-05-21 06:14:38 51°13.639 2°56.02 -999 23 9.2 100490 43
2012-05-21 06:14:43 51°13.639 2°56.02 -999 55 9.2 100490 43
2012-05-21 06:14:49 51°13.639 2°56.02 -999 268 9.2 100490 43
2012-05-21 06:14:54 51°13.639 2°56.02 -999 54 9.2 100490 43
2012-05-21 06:14:58 51°13.639 2°56.02 -999 24 9.2 100490 43
2012-05-21 06:15:03 51°13.639 2°56.02 -999 287 9.2 100490 43
2012-05-21 06:15:08 51°13.639 2°56.02 -999 24 9.2 100490 43
2012-05-21 06:15:14 51°13.639 2°56.02 -999 54 9.2 100490 43
2012-05-21 06:15:19 51°13.639 2°56.02 -999 23 9.2 100490 43
2012-05-21 06:15:24 51°13.639 2°56.02 -999 54 9.2 100490 43
2012-05-21 06:15:29 51°13.639 2°56.02 -999 23 9.2 100490 43
2012-05-21 06:15:34 51°13.638 2°56.02 -999 57 9.2 100490 43
2012-05-21 06:15:39 51°13.638 2°56.02 -999 27 9.2 100490 43
2012-05-21 06:15:44 51°13.637 2°56.02 -999 54 9.2 100490 43
2012-05-21 06:15:49 51°13.638 2°56.02 -999 24 9.2 100490 43
2012-05-21 06:15:54 51°13.638 2°56.02 -999 54 9.2 100490 43
2012-05-21 06:15:59 51°13.638 2°56.02 -999 23 9.2 100490 43
2012-05-21 06:16:04 51°13.638 2°56.02 -999 81 9.2 100490 43
2012-05-21 06:16:09 51°13.638 2°56.02 -999 24 9.2 100490 43
2012-05-21 06:16:14 51°13.638 2°56.019 -999 310 9.2 100490 43
2012-05-21 06:16:19 51°13.638 2°56.019 -999 26 9.1 100490 43
2012-05-21 06:16:23 51°13.638 2°56.019 -999 54 9.1 100490 43
2012-05-21 06:16:28 51°13.637 2°56.019 -999 23 9.1 100490 43
2012-05-21 06:16:34 51°13.637 2°56.019 -999 54 9.1 100490 43
2012-05-21 06:16:39 51°13.638 2°56.019 -999 23 9.1 100490 43
2012-05-21 06:16:44 51°13.638 2°56.019 -999 54 9.1 100490 43
2012-05-21 06:16:49 51°13.638 2°56.019 -999 23 9.1 100490 43
2012-05-21 06:16:54 51°13.638 2°56.019 -999 54 9.1 100490 43
2012-05-21 06:16:58 51°13.638 2°56.02 -999 23 9.1 100500 42
2012-05-21 06:17:03 51°13.638 2°56.019 -999 54 9.1 100500 42
2012-05-21 06:17:08 51°13.638 2°56.019 -999 23 9.1 100490 43
2012-05-21 06:17:14 51°13.638 2°56.019 -999 55 9.1 100490 43
2012-05-21 06:17:19 51°13.637 2°56.019 -999 23 9.1 100500 43
2012-05-21 06:17:24 51°13.637 2°56.019 -999 54 9.1 100500 43
2012-05-21 06:17:29 51°13.637 2°56.019 -999 8 9.1 100490 43
2012-05-21 06:17:34 51°13.637 2°56.019 -999 302 9.1 100490 43
2012-05-21 06:17:39 51°13.638 2°56.019 -999 25 9.1 100490 43
2012-05-21 06:17:44 51°13.638 2°56.019 -999 54 9.1 100490 43
2012-05-21 06:17:48 51°13.638 2°56.019 -999 267 9.1 100500 42
2012-05-21 06:17:54 51°13.638 2°56.019 -999 54 9.1 100500 42
2012-05-21 06:17:59 51°13.638 2°56.019 -999 25 9.1 100490 43
2012-05-21 06:18:03 51°13.638 2°56.019 -999 285 9.1 100490 43
2012-05-21 06:18:08 51°13.638 2°56.019 -999 24 9.1 100500 43
2012-05-21 06:18:13 51°13.638 2°56.019 -999 54 9.1 100500 43
2012-05-21 06:18:19 51°13.637 2°56.019 -999 23 9.1 100500 42
2012-05-21 06:18:24 51°13.637 2°56.019 -999 54 9.1 100500 42
2012-05-21 06:18:29 51°13.638 2°56.019 -999 24 9.1 100500 43
2012-05-21 06:18:34 51°13.638 2°56.019 -999 58 9.1 100500 43
2012-05-21 06:18:38 51°13.638 2°56.02 -999 24 9.2 100490 43
2012-05-21 06:18:44 51°13.638 2°56.019 -999 54 9.2 100490 43
2012-05-21 06:18:49 51°13.637 2°56.019 -999 23 9.2 100500 43
2012-05-21 06:18:54 51°13.637 2°56.019 -999 54 9.2 100500 43
2012-05-21 06:18:58 51°13.637 2°56.019 -999 23 9.2 100500 43
2012-05-21 06:19:03 51°13.637 2°56.019 -999 54 9.2 100500 43
2012-05-21 06:19:09 51°13.638 2°56.019 -999 23 9.1 100500 43
2012-05-21 06:19:14 51°13.638 2°56.02 -999 55 9.1 100500 43
2012-05-21 06:19:19 51°13.638 2°56.02 -999 25 9.1 100500 43
2012-05-21 06:19:24 51°13.637 2°56.019 -999 50 9.1 100500 43
2012-05-21 06:19:29 51°13.637 2°56.019 -999 22 9.1 100490 43
2012-05-21 06:19:33 51°13.637 2°56.019 -999 54 9.1 100490 43
2012-05-21 06:19:39 51°13.637 2°56.019 -999 23 9.1 100490 42
2012-05-21 06:19:43 51°13.637 2°56.019 -999 54 9.1 100490 42
2012-05-21 06:19:48 51°13.637 2°56.019 -999 23 9.1 100490 43
2012-05-21 06:19:53 51°13.637 2°56.019 -999 54 9.1 100490 43
2012-05-21 06:19:58 51°13.637 2°56.019 -999 18 9.1 100490 43
2012-05-21 06:20:03 51°13.637 2°56.019 -999 78 9.1 100490 43
2012-05-21 06:20:09 51°13.637 2°56.019 -999 24 9.1 100490 43
2012-05-21 06:20:14 51°13.637 2°56.019 -999 50 9.1 100490 43
2012-05-21 06:20:19 51°13.637 2°56.019 -999 25 9.1 100500 43
2012-05-21 06:20:23 51°13.637 2°56.019 -999 35 9.1 100500 43
2012-05-21 06:20:28 51°13.636 2°56.019 -999 23 9.1 100500 43
2012-05-21 06:20:33 51°13.637 2°56.019 -999 54 9.1 100500 43
2012-05-21 06:20:39 51°13.637 2°56.019 -999 23 9.1 100490 43
2012-05-21 06:20:44 51°13.637 2°56.019 -999 54 9.1 100490 43
2012-05-21 06:20:49 51°13.636 2°56.019 -999 23 9.1 100490 43
2012-05-21 06:20:54 51°13.636 2°56.019 -999 54 9.1 100490 43
2012-05-21 06:20:59 51°13.636 2°56.019 -999 23 9.1 100490 43
2012-05-21 06:21:03 51°13.636 2°56.019 -999 54 9.1 100490 43
2012-05-21 06:21:08 51°13.636 2°56.019 -999 23 9.1 100490 43
2012-05-21 06:21:13 51°13.636 2°56.019 -999 50 9.1 100490 43
2012-05-21 06:21:18 51°13.636 2°56.019 -999 26 9.1 100490 43
2012-05-21 06:21:24 51°13.636 2°56.019 -999 306 9.1 100490 43
2012-05-21 06:21:28 51°13.636 2°56.019 -999 26 9.1 100490 43
2012-05-21 06:21:33 51°13.636 2°56.019 -999 54 9.1 100490 43
2012-05-21 06:21:38 51°13.636 2°56.019 -999 23 9.1 100490 43
2012-05-21 06:21:44 51°13.636 2°56.019 -999 55 9.1 100490 43
2012-05-21 06:21:49 51°13.636 2°56.019 -999 23 9.1 100490 43
2012-05-21 06:21:54 51°13.636 2°56.019 -999 54 9.1 100490 43
2012-05-21 06:21:59 51°13.636 2°56.019 -999 23 9.1 100490 43
2012-05-21 06:22:04 51°13.636 2°56.019 -999 78 9.1 100490 43
2012-05-21 06:22:09 51°13.636 2°56.019 -999 24 9.1 100490 43
2012-05-21 06:22:14 51°13.636 2°56.019 -999 54 9.1 100490 43
2012-05-21 06:22:19 51°13.636 2°56.019 -999 23 9.1 100490 42
2012-05-21 06:22:24 51°13.636 2°56.019 -999 54 9.1 100490 42
2012-05-21 06:22:29 51°13.636 2°56.019 -999 23 9.1 100490 43
2012-05-21 06:22:33 51°13.636 2°56.019 -999 54 9.1 100490 43
2012-05-21 06:22:38 51°13.636 2°56.019 -999 23 9.1 100490 43
2012-05-21 06:22:43 51°13.636 2°56.018 -999 54 9.1 100490 43
2012-05-21 06:22:48 51°13.636 2°56.018 -999 23 9.1 100490 43
2012-05-21 06:22:53 51°13.636 2°56.019 -999 54 9.1 100490 43
2012-05-21 06:22:59 51°13.636 2°56.018 -999 24 9.1 100490 43
2012-05-21 06:23:04 51°13.636 2°56.018 -999 306 9.1 100490 43
2012-05-21 06:23:09 51°13.635 2°56.018 -999 270 9.1 100490 43
2012-05-21 06:23:13 51°13.635 2°56.018 -999 54 9.1 100490 43
2012-05-21 06:23:18 51°13.635 2°56.018 -999 23 9.1 100490 43
2012-05-21 06:23:23 51°13.635 2°56.018 -999 50 9.1 100490 43
2012-05-21 06:23:28 51°13.636 2°56.018 -999 24 9.1 100490 43
2012-05-21 06:23:33 51°13.635 2°56.018 -999 54 9.1 100490 43
2012-05-21 06:23:38 51°13.635 2°56.018 -999 23 9.1 100490 43
2012-05-21 06:23:44 51°13.635 2°56.018 -999 50 9.1 100490 43
2012-05-21 06:23:49 51°13.635 2°56.018 -999 24 9.1 100490 43
2012-05-21 06:23:54 51°13.635 2°56.018 -999 54 9.1 100490 43
2012-05-21 06:23:59 51°13.635 2°56.018 -999 23 9.1 100490 43
2012-05-21 06:24:04 51°13.635 2°56.018 -999 78 9.1 100490 43
2012-05-21 06:24:09 51°13.635 2°56.018 -999 23 9.1 100490 43
2012-05-21 06:24:14 51°13.635 2°56.018 -999 54 9.1 100490 43
2012-05-21 06:24:19 51°13.635 2°56.018 -999 23 9.1 100490 43
2012-05-21 06:24:23 51°13.635 2°56.018 -999 54 9.1 100490 43
2012-05-21 06:24:29 51°13.635 2°56.018 -999 23 9.1 100480 43
2012-05-21 06:24:33 51°13.635 2°56.018 -999 310 9.1 100480 43
2012-05-21 06:24:39 51°13.635 2°56.018 -999 25 9.1 100490 43
2012-05-21 06:24:44 51°13.635 2°56.018 -999 54 9.1 100490 43
2012-05-21 06:24:49 51°13.635 2°56.018 -999 23 9.1 100490 43
2012-05-21 06:24:54 51°13.635 2°56.018 -999 54 9.1 100490 43
2012-05-21 06:24:59 51°13.635 2°56.018 -999 23 9.1 100490 41
2012-05-21 06:25:03 51°13.635 2°56.018 -999 54 9.1 100490 41
2012-05-21 06:25:09 51°13.635 2°56.018 -999 23 9.1 100490 43
2012-05-21 06:25:14 51°13.635 2°56.018 -999 54 9.1 100490 43
2012-05-21 06:25:18 51°13.635 2°56.018 -999 23 9.1 100490 43
2012-05-21 06:25:23 51°13.635 2°56.018 -999 54 9.1 100490 43
2012-05-21 06:25:29 51°13.635 2°56.018 -999 23 9.1 100490 43
2012-05-21 06:25:34 51°13.635 2°56.018 -999 54 9.1 100490 43
2012-05-21 06:25:38 51°13.635 2°56.018 -999 23 9.1 100490 43
2012-05-21 06:25:44 51°13.635 2°56.018 -999 54 9.1 100490 43
2012-05-21 06:25:49 51°13.635 2°56.018 -999 24 9.1 100490 43
2012-05-21 06:25:53 51°13.635 2°56.018 -999 54 9.1 100490 43
2012-05-21 06:25:58 51°13.635 2°56.018 -999 23 9.1 100490 43
2012-05-21 06:26:04 51°13.635 2°56.018 -999 78 9.1 100490 43
2012-05-21 06:26:09 51°13.635 2°56.018 -999 23 9.1 100490 43
2012-05-21 06:26:13 51°13.635 2°56.018 -999 54 9.1 100490 43
2012-05-21 06:26:19 51°13.635 2°56.018 -999 23 9.1 100490 43
2012-05-21 06:26:24 51°13.635 2°56.018 -999 54 9.1 100490 43
2012-05-21 06:26:29 51°13.636 2°56.018 -999 23 9.1 100490 43
2012-05-21 06:26:34 51°13.636 2°56.018 -999 54 9.1 100490 43
2012-05-21 06:26:39 51°13.636 2°56.018 -999 23 9.1 100490 43
2012-05-21 06:26:44 51°13.636 2°56.018 -999 55 9.1 100490 43
2012-05-21 06:26:49 51°13.636 2°56.018 -999 23 9.1 100490 43
2012-05-21 06:26:53 51°13.636 2°56.019 -999 56 9.1 100490 43
2012-05-21 06:26:58 51°13.636 2°56.018 -999 24 9.1 100490 43
2012-05-21 06:27:03 51°13.636 2°56.018 -999 78 9.1 100490 43
2012-05-21 06:27:08 51°13.636 2°56.019 -999 23 9.1 100490 43
2012-05-21 06:27:13 51°13.636 2°56.018 -999 54 9.1 100490 43
2012-05-21 06:27:18 51°13.636 2°56.018 -999 23 9.1 100490 43
2012-05-21 06:27:23 51°13.636 2°56.018 -999 54 9.1 100490 43
2012-05-21 06:27:28 51°13.636 2°56.018 -999 24 9.1 100490 43
2012-05-21 06:27:33 51°13.636 2°56.018 -999 54 9.1 100490 43
2012-05-21 06:27:38 51°13.636 2°56.018 -999 23 9.1 100490 42
2012-05-21 06:27:43 51°13.636 2°56.018 -999 54 9.1 100490 42
2012-05-21 06:27:49 51°13.636 2°56.019 -999 256 9.1 100490 43
2012-05-21 06:27:54 51°13.636 2°56.018 -999 54 9.1 100490 43
2012-05-21 06:27:59 51°13.635 2°56.018 -999 23 9.1 100490 43
2012-05-21 06:28:04 51°13.636 2°56.018 -999 79 9.1 100490 43
2012-05-21 06:28:09 51°13.636 2°56.018 -999 24 9.1 100490 43
2012-05-21 06:28:14 51°13.636 2°56.018 -999 54 9.1 100490 43
2012-05-21 06:28:19 51°13.635 2°56.018 -999 24 9.1 100490 43
2012-05-21 06:28:24 51°13.635 2°56.018 -999 58 9.1 100490 43
2012-05-21 06:28:29 51°13.635 2°56.018 -999 20 9.1 100490 43
2012-05-21 06:28:34 51°13.635 2°56.018 -999 55 9.1 100490 43
2012-05-21 06:28:38 51°13.635 2°56.018 -999 23 9.1 100490 41
2012-05-21 06:28:44 51°13.635 2°56.018 -999 54 9.1 100490 41
2012-05-21 06:28:49 51°13.635 2°56.018 -999 24 9.1 100490 44
2012-05-21 06:28:53 51°13.635 2°56.018 -999 54 9.1 100490 44
2012-05-21 06:28:58 51°13.635 2°56.018 -999 25 9.2 100490 43
2012-05-21 06:29:04 51°13.635 2°56.017 -999 78 9.2 100490 43
2012-05-21 06:29:08 51°13.635 2°56.018 -999 23 9.2 100490 43
2012-05-21 06:29:13 51°13.635 2°56.018 -999 307 9.2 100490 43
2012-05-21 06:29:18 51°13.635 2°56.018 -999 264 9.2 100500 42
2012-05-21 06:29:23 51°13.635 2°56.018 -999 44 9.2 100500 42
2012-05-21 06:29:28 51°13.635 2°56.018 -999 24 9.2 100490 43
2012-05-21 06:29:33 51°13.635 2°56.018 -999 306 9.2 100490 43
2012-05-21 06:29:38 51°13.635 2°56.018 -999 264 9.2 100500 44
2012-05-21 06:29:43 51°13.635 2°56.018 -999 54 9.2 100500 44
2012-05-21 06:29:48 51°13.635 2°56.018 -999 265 9.2 100500 43
2012-05-21 06:29:53 51°13.635 2°56.018 -999 54 9.2 100500 43
2012-05-21 06:29:59 51°13.635 2°56.018 -999 24 9.2 100490 43
2012-05-21 06:30:04 51°13.635 2°56.018 -999 74 9.2 100490 43
2012-05-21 06:30:09 51°13.636 2°56.018 -999 24 9.2 100500 43
2012-05-21 06:30:14 51°13.636 2°56.018 -999 306 9.2 100500 43
2012-05-21 06:30:19 51°13.636 2°56.018 -999 270 9.2 100500 43
2012-05-21 06:30:24 51°13.636 2°56.018 -999 59 9.2 100500 43
2012-05-21 06:30:29 51°13.636 2°56.018 -999 25 9.2 100500 43
2012-05-21 06:30:34 51°13.636 2°56.018 -999 308 9.2 100500 43
2012-05-21 06:30:39 51°13.636 2°56.018 -999 268 9.2 100500 43
2012-05-21 06:30:44 51°13.636 2°56.018 -999 55 9.2 100500 43
2012-05-21 06:30:49 51°13.636 2°56.018 -999 24 9.2 100500 43
2012-05-21 06:30:54 51°13.636 2°56.018 -999 58 9.2 100500 43
2012-05-21 06:30:59 51°13.636 2°56.018 -999 266 9.2 100500 43
2012-05-21 06:31:04 51°13.636 2°56.018 -999 308 9.2 100500 43
2012-05-21 06:31:08 51°13.636 2°56.018 -999 264 9.2 100500 43
2012-05-21 06:31:14 51°13.636 2°56.018 -999 306 9.2 100500 43
2012-05-21 06:31:19 51°13.636 2°56.018 -999 23 9.2 100500 43
2012-05-21 06:31:24 51°13.636 2°56.018 -999 55 9.2 100500 43
2012-05-21 06:31:29 51°13.636 2°56.018 -999 25 9.2 100500 43
2012-05-21 06:31:34 51°13.636 2°56.018 -999 54 9.2 100500 43
2012-05-21 06:31:38 51°13.636 2°56.018 -999 24 9.2 100500 43
2012-05-21 06:31:44 51°13.636 2°56.018 -999 56 9.2 100500 43
2012-05-21 06:31:49 51°13.636 2°56.018 -999 24 9.2 100500 43
2012-05-21 06:31:54 51°13.636 2°56.018 -999 54 9.2 100500 43
2012-05-21 06:31:59 51°13.636 2°56.018 -999 265 9.2 100500 43
2012-05-21 06:32:04 51°13.636 2°56.018 -999 78 9.2 100500 43
2012-05-21 06:32:09 51°13.636 2°56.018 -999 20 9.2 100500 43
2012-05-21 06:32:14 51°13.636 2°56.018 -999 306 9.2 100500 43
2012-05-21 06:32:19 51°13.636 2°56.018 -999 269 9.2 100500 43
2012-05-21 06:32:24 51°13.636 2°56.018 -999 55 9.2 100500 43
2012-05-21 06:32:29 51°13.636 2°56.018 -999 266 9.2 100500 43
2012-05-21 06:32:34 51°13.636 2°56.018 -999 54 9.2 100500 43
2012-05-21 06:32:39 51°13.636 2°56.018 -999 25 9.2 100500 43
2012-05-21 06:32:44 51°13.636 2°56.018 -999 56 9.2 100500 43
2012-05-21 06:32:49 51°13.636 2°56.018 -999 263 9.2 100500 43
2012-05-21 06:32:54 51°13.636 2°56.018 -999 310 9.2 100500 43
2012-05-21 06:32:59 51°13.636 2°56.018 -999 26 9.2 100500 42
2012-05-21 06:33:04 51°13.636 2°56.018 -999 54 9.2 100500 42
2012-05-21 06:33:09 51°13.636 2°56.018 -999 23 9.2 100500 43
2012-05-21 06:33:13 51°13.636 2°56.018 -999 310 9.2 100500 43
2012-05-21 06:33:18 51°13.636 2°56.018 -999 25 9.2 100500 43
2012-05-21 06:33:24 51°13.636 2°56.018 -999 56 9.2 100500 43
2012-05-21 06:33:29 51°13.636 2°56.018 -999 24 9.2 100500 43
2012-05-21 06:33:34 51°13.636 2°56.018 -999 54 9.2 100500 43
2012-05-21 06:33:39 51°13.636 2°56.018 -999 24 9.2 100500 43
2012-05-21 06:33:44 51°13.636 2°56.018 -999 310 9.2 100500 43
2012-05-21 06:33:49 51°13.636 2°56.018 -999 255 9.2 100500 43
2012-05-21 06:33:53 51°13.636 2°56.017 -999 54 9.2 100500 43
2012-05-21 06:33:58 51°13.636 2°56.017 -999 23 9.2 100500 45
2012-05-21 06:34:03 51°13.636 2°56.017 -999 78 9.2 100500 45
2012-05-21 06:34:08 51°13.636 2°56.017 -999 23 9.2 100500 43
2012-05-21 06:34:13 51°13.636 2°56.017 -999 54 9.2 100500 43
2012-05-21 06:34:18 51°13.636 2°56.017 -999 267 9.2 100500 43
2012-05-21 06:34:23 51°13.636 2°56.017 -999 54 9.2 100500 43
2012-05-21 06:34:29 51°13.636 2°56.017 -999 23 9.2 100500 43
2012-05-21 06:34:34 51°13.636 2°56.017 -999 54 9.2 100500 43
2012-05-21 06:34:39 51°13.635 2°56.017 -999 267 9.2 100500 45
2012-05-21 06:34:44 51°13.635 2°56.017 -999 54 9.2 100500 45
2012-05-21 06:34:49 51°13.634 2°56.017 -999 23 9.2 100500 43
2012-05-21 06:34:54 51°13.634 2°56.017 -999 54 9.2 100500 43
2012-05-21 06:34:59 51°13.634 2°56.017 -999 24 9.2 100500 43
2012-05-21 06:35:03 51°13.634 2°56.017 -999 283 9.2 100500 43
2012-05-21 06:35:09 51°13.635 2°56.017 -999 270 9.2 100500 43
2012-05-21 06:35:14 51°13.635 2°56.017 -999 54 9.2 100500 43
2012-05-21 06:35:18 51°13.635 2°56.017 -999 265 9.2 100500 43
2012-05-21 06:35:24 51°13.635 2°56.017 -999 54 9.2 100500 43
2012-05-21 06:35:28 51°13.635 2°56.017 -999 22 9.2 100500 43
2012-05-21 06:35:34 51°13.635 2°56.017 -999 56 9.2 100500 43
2012-05-21 06:35:39 51°13.636 2°56.017 -999 266 9.2 100500 42
2012-05-21 06:35:44 51°13.636 2°56.017 -999 55 9.2 100500 42
2012-05-21 06:35:49 51°13.636 2°56.017 -999 23 9.2 100500 43
2012-05-21 06:35:54 51°13.636 2°56.017 -999 54 9.2 100500 43
2012-05-21 06:35:59 51°13.636 2°56.017 -999 23 9.2 100500 43
2012-05-21 06:36:04 51°13.636 2°56.017 -999 78 9.2 100500 43
2012-05-21 06:36:09 51°13.636 2°56.017 -999 24 9.2 100500 43
2012-05-21 06:36:13 51°13.636 2°56.017 -999 54 9.2 100500 43
2012-05-21 06:36:19 51°13.636 2°56.017 -999 23 9.2 100500 43
2012-05-21 06:36:24 51°13.636 2°56.017 -999 54 9.2 100500 43
2012-05-21 06:36:29 51°13.637 2°56.017 -999 23 9.2 100500 43
2012-05-21 06:36:34 51°13.636 2°56.017 -999 54 9.2 100500 43
2012-05-21 06:36:39 51°13.636 2°56.017 -999 19 9.2 100500 43
2012-05-21 06:36:44 51°13.636 2°56.017 -999 308 9.2 100500 43
2012-05-21 06:36:49 51°13.636 2°56.017 -999 25 9.2 100500 43
2012-05-21 06:36:54 51°13.636 2°56.017 -999 51 9.2 100500 43
2012-05-21 06:36:59 51°13.636 2°56.017 -999 27 9.2 100500 43
2012-05-21 06:37:03 51°13.636 2°56.016 -999 310 9.2 100500 43
2012-05-21 06:37:08 51°13.636 2°56.016 -999 270 9.2 100500 43
2012-05-21 06:37:13 51°13.636 2°56.016 -999 56 9.2 100500 43
2012-05-21 06:37:18 51°13.636 2°56.016 -999 24 9.2 100510 43
2012-05-21 06:37:24 51°13.636 2°56.016 -999 56 9.2 100510 43
2012-05-21 06:37:29 51°13.636 2°56.016 -999 26 9.2 100500 42
2012-05-21 06:37:34 51°13.636 2°56.016 -999 14 9.2 100500 42
2012-05-21 06:37:39 51°13.636 2°56.016 -999 265 9.2 100500 43
2012-05-21 06:37:44 51°13.636 2°56.016 -999 52 9.2 100500 43
2012-05-21 06:37:48 51°13.636 2°56.016 -999 260 9.2 100500 43
2012-05-21 06:37:54 51°13.636 2°56.016 -999 306 9.2 100500 43
2012-05-21 06:37:59 51°13.636 2°56.016 -999 270 9.2 100500 43
2012-05-21 06:38:03 51°13.636 2°56.016 -999 78 9.2 100500 43
2012-05-21 06:38:08 51°13.636 2°56.016 -999 25 9.2 100500 43
2012-05-21 06:38:14 51°13.636 2°56.017 -999 54 9.2 100500 43
2012-05-21 06:38:18 51°13.636 2°56.017 -999 23 9.2 100510 42
2012-05-21 06:38:23 51°13.635 2°56.017 -999 54 9.2 100510 42
2012-05-21 06:38:28 51°13.635 2°56.017 -999 24 9.2 100500 43
2012-05-21 06:38:33 51°13.635 2°56.017 -999 58 9.2 100500 43
2012-05-21 06:38:38 51°13.635 2°56.017 -999 25 9.2 100500 43
2012-05-21 06:38:44 51°13.635 2°56.017 -999 306 9.2 100500 43
2012-05-21 06:38:48 51°13.635 2°56.017 -999 28 9.2 100510 43
2012-05-21 06:38:54 51°13.635 2°56.018 -999 56 9.2 100510 43
2012-05-21 06:38:58 51°13.635 2°56.018 -999 24 9.2 100510 43
2012-05-21 06:39:04 51°13.635 2°56.018 -999 54 9.2 100510 43
2012-05-21 06:39:09 51°13.635 2°56.018 -999 24 9.2 100510 43
2012-05-21 06:39:14 51°13.635 2°56.018 -999 310 9.2 100510 43
2012-05-21 06:39:18 51°13.635 2°56.018 -999 270 9.2 100500 43
2012-05-21 06:39:23 51°13.635 2°56.018 -999 58 9.2 100500 43
2012-05-21 06:39:28 51°13.635 2°56.018 -999 269 9.2 100510 43
2012-05-21 06:39:33 51°13.635 2°56.018 -999 310 9.2 100510 43
2012-05-21 06:39:39 51°13.635 2°56.018 -999 26 9.2 100510 42
2012-05-21 06:39:44 51°13.635 2°56.018 -999 310 9.2 100510 42
2012-05-21 06:39:49 51°13.635 2°56.018 -999 26 9.2 100510 43
2012-05-21 06:39:53 51°13.635 2°56.018 -999 53 9.2 100510 43
2012-05-21 06:39:58 51°13.635 2°56.018 -999 21 9.2 100510 43
2012-05-21 06:40:03 51°13.635 2°56.018 -999 78 9.2 100510 43
2012-05-21 06:40:08 51°13.636 2°56.018 -999 269 9.1 100510 43
2012-05-21 06:40:13 51°13.636 2°56.018 -999 306 9.1 100510 43
2012-05-21 06:40:18 51°13.636 2°56.018 -999 265 9.2 100510 43
2012-05-21 06:40:23 51°13.636 2°56.019 -999 54 9.2 100510 43
2012-05-21 06:40:29 51°13.636 2°56.019 -999 269 9.1 100500 43
2012-05-21 06:40:34 51°13.636 2°56.019 -999 310 9.1 100500 43
2012-05-21 06:40:39 51°13.635 2°56.019 -999 268 9.1 100510 43
2012-05-21 06:40:44 51°13.635 2°56.019 -999 303 9.1 100510 43
2012-05-21 06:40:48 51°13.635 2°56.019 -999 24 9.1 100510 43
2012-05-21 06:40:53 51°13.635 2°56.019 -999 54 9.1 100510 43
2012-05-21 06:40:58 51°13.635 2°56.019 -999 23 9.1 100510 41
2012-05-21 06:41:03 51°13.635 2°56.019 -999 54 9.1 100510 41
2012-05-21 06:41:08 51°13.635 2°56.019 -999 25 9.1 100500 43
2012-05-21 06:41:13 51°13.635 2°56.019 -999 55 9.1 100500 43
2012-05-21 06:41:18 51°13.635 2°56.018 -999 24 9.2 100500 43
2012-05-21 06:41:23 51°13.635 2°56.018 -999 58 9.2 100500 43
2012-05-21 06:41:28 51°13.635 2°56.019 -999 25 9.1 100500 43
2012-05-21 06:41:33 51°13.635 2°56.019 -999 54 9.1 100500 43
2012-05-21 06:41:38 51°13.635 2°56.019 -999 24 9.2 100500 43
2012-05-21 06:41:44 51°13.635 2°56.019 -999 54 9.2 100500 43
2012-05-21 06:41:49 51°13.635 2°56.019 -999 261 9.2 100500 43
2012-05-21 06:41:54 51°13.635 2°56.019 -999 56 9.2 100500 43
2012-05-21 06:41:59 51°13.635 2°56.019 -999 24 9.2 100500 43
2012-05-21 06:42:04 51°13.635 2°56.019 -999 78 9.2 100500 43
2012-05-21 06:42:09 51°13.635 2°56.019 -999 23 9.2 100500 43
2012-05-21 06:42:14 51°13.635 2°56.019 -999 54 9.2 100500 43
2012-05-21 06:42:19 51°13.635 2°56.019 -999 268 9.2 100500 43
2012-05-21 06:42:24 51°13.635 2°56.019 -999 55 9.2 100500 43
2012-05-21 06:42:29 51°13.635 2°56.019 -999 269 9.2 100500 43
2012-05-21 06:42:33 51°13.635 2°56.019 -999 308 9.2 100500 43
2012-05-21 06:42:38 51°13.635 2°56.019 -999 262 9.2 100500 43
2012-05-21 06:42:43 51°13.635 2°56.019 -999 55 9.2 100500 43
2012-05-21 06:42:48 51°13.635 2°56.019 -999 23 9.2 100500 43
2012-05-21 06:42:53 51°13.635 2°56.019 -999 307 9.2 100500 43
2012-05-21 06:42:59 51°13.635 2°56.019 -999 268 9.2 100500 43
2012-05-21 06:43:04 51°13.635 2°56.019 -999 306 9.2 100500 43
2012-05-21 06:43:09 51°13.635 2°56.019 -999 23 9.2 100500 43
2012-05-21 06:43:14 51°13.635 2°56.019 -999 56 9.2 100500 43
2012-05-21 06:43:18 51°13.635 2°56.019 -999 24 9.2 100510 43
2012-05-21 06:43:23 51°13.635 2°56.019 -999 56 9.2 100510 43
2012-05-21 06:43:29 51°13.635 2°56.019 -999 263 9.2 100510 43
2012-05-21 06:43:34 51°13.635 2°56.019 -999 57 9.2 100510 43
2012-05-21 06:43:39 51°13.635 2°56.019 -999 24 9.2 100500 42
2012-05-21 06:43:43 51°13.635 2°56.019 -999 346 9.2 100500 42
2012-05-21 06:43:49 51°13.635 2°56.019 -999 259 9.2 100500 43
2012-05-21 06:43:54 51°13.635 2°56.019 -999 306 9.2 100500 43
2012-05-21 06:43:59 51°13.635 2°56.019 -999 26 9.2 100500 43
2012-05-21 06:44:04 51°13.635 2°56.019 -999 78 9.2 100500 43
2012-05-21 06:44:09 51°13.635 2°56.019 -999 270 9.2 100500 43
2012-05-21 06:44:14 51°13.635 2°56.019 -999 54 9.2 100500 43
2012-05-21 06:44:19 51°13.635 2°56.019 -999 270 9.2 100500 44
2012-05-21 06:44:24 51°13.635 2°56.019 -999 55 9.2 100500 44
2012-05-21 06:44:29 51°13.635 2°56.019 -999 25 9.2 100500 43
2012-05-21 06:44:34 51°13.635 2°56.019 -999 304 9.2 100500 43
2012-05-21 06:44:39 51°13.635 2°56.019 -999 25 9.2 100500 43
2012-05-21 06:44:44 51°13.635 2°56.019 -999 308 9.2 100500 43
2012-05-21 06:44:49 51°13.635 2°56.019 -999 27 9.2 100500 43
2012-05-21 06:44:54 51°13.635 2°56.019 -999 54 9.2 100500 43
2012-05-21 06:44:59 51°13.635 2°56.018 -999 25 9.2 100500 42
2012-05-21 06:45:04 51°13.635 2°56.019 -999 78 9.2 100500 42
2012-05-21 06:45:09 51°13.636 2°56.018 -999 263 9.2 100500 43
2012-05-21 06:45:14 51°13.636 2°56.019 -999 306 9.2 100500 43
2012-05-21 06:45:18 51°13.636 2°56.019 -999 26 9.2 100500 43
2012-05-21 06:45:24 51°13.636 2°56.019 -999 55 9.2 100500 43
2012-05-21 06:45:28 51°13.636 2°56.019 -999 23 9.2 100500 45
2012-05-21 06:45:34 51°13.636 2°56.019 -999 54 9.2 100500 45
2012-05-21 06:45:39 51°13.636 2°56.019 -999 24 9.2 100500 43
2012-05-21 06:45:44 51°13.636 2°56.019 -999 50 9.2 100500 43
2012-05-21 06:45:49 51°13.636 2°56.019 -999 21 9.2 100500 43
2012-05-21 06:45:54 51°13.636 2°56.019 -999 54 9.2 100500 43
2012-05-21 06:45:59 51°13.636 2°56.019 -999 268 9.2 100510 43
2012-05-21 06:46:04 51°13.636 2°56.019 -999 77 9.2 100510 43
2012-05-21 06:46:09 51°13.636 2°56.019 -999 24 9.2 100500 43
2012-05-21 06:46:14 51°13.636 2°56.019 -999 58 9.2 100500 43
2012-05-21 06:46:18 51°13.636 2°56.019 -999 24 9.2 100500 42
2012-05-21 06:46:23 51°13.636 2°56.019 -999 54 9.2 100500 42
2012-05-21 06:46:28 51°13.636 2°56.019 -999 23 9.2 100500 43
2012-05-21 06:46:33 51°13.636 2°56.019 -999 54 9.2 100500 43
2012-05-21 06:46:38 51°13.636 2°56.019 -999 25 9.2 100500 43
2012-05-21 06:46:43 51°13.636 2°56.019 -999 54 9.2 100500 43
2012-05-21 06:46:48 51°13.636 2°56.019 -999 23 9.2 100500 43
2012-05-21 06:46:54 51°13.636 2°56.019 -999 305 9.2 100500 43
2012-05-21 06:46:59 51°13.636 2°56.019 -999 25 9.2 100500 43
2012-05-21 06:47:04 51°13.636 2°56.019 -999 54 9.2 100500 43
2012-05-21 06:47:09 51°13.636 2°56.019 -999 23 9.2 100500 43
2012-05-21 06:47:14 51°13.635 2°56.019 -999 54 9.2 100500 43
2012-05-21 06:47:19 51°13.635 2°56.019 -999 23 9.2 100510 43
2012-05-21 06:47:24 51°13.635 2°56.019 -999 54 9.2 100510 43
2012-05-21 06:47:29 51°13.635 2°56.019 -999 23 9.2 100500 43
2012-05-21 06:47:33 51°13.635 2°56.019 -999 54 9.2 100500 43
2012-05-21 06:47:38 51°13.635 2°56.019 -999 25 9.2 100500 43
2012-05-21 06:47:43 51°13.636 2°56.019 -999 54 9.2 100500 43
2012-05-21 06:47:48 51°13.635 2°56.019 -999 262 9.2 100500 43
2012-05-21 06:47:53 51°13.635 2°56.019 -999 52 9.2 100500 43
2012-05-21 06:47:58 51°13.635 2°56.019 -999 25 9.2 100500 44
2012-05-21 06:48:03 51°13.635 2°56.019 -999 78 9.2 100500 44
2012-05-21 06:48:08 51°13.635 2°56.019 -999 27 9.3 100500 44
2012-05-21 06:48:13 51°13.635 2°56.019 -999 54 9.3 100500 44
2012-05-21 06:48:18 51°13.635 2°56.019 -999 26 9.3 100500 43
2012-05-21 06:48:24 51°13.635 2°56.019 -999 55 9.3 100500 43
2012-05-21 06:48:29 51°13.635 2°56.019 -999 24 9.3 100500 43
2012-05-21 06:48:34 51°13.636 2°56.019 -999 54 9.3 100500 43
2012-05-21 06:48:39 51°13.635 2°56.019 -999 24 9.2 100500 43
2012-05-21 06:48:44 51°13.635 2°56.019 -999 55 9.2 100500 43
2012-05-21 06:48:49 51°13.635 2°56.019 -999 25 9.2 100500 43
2012-05-21 06:48:54 51°13.635 2°56.019 -999 55 9.2 100500 43
2012-05-21 06:48:59 51°13.635 2°56.019 -999 23 9.3 100500 42
2012-05-21 06:49:04 51°13.635 2°56.019 -999 78 9.3 100500 42
2012-05-21 06:49:09 51°13.635 2°56.019 -999 265 9.3 100500 43
2012-05-21 06:49:14 51°13.635 2°56.019 -999 55 9.3 100500 43
2012-05-21 06:49:19 51°13.635 2°56.019 -999 23 9.3 100500 43
2012-05-21 06:49:24 51°13.635 2°56.019 -999 54 9.3 100500 43
2012-05-21 06:49:29 51°13.635 2°56.019 -999 23 9.2 100500 43
2012-05-21 06:49:34 51°13.635 2°56.019 -999 306 9.2 100500 43
2012-05-21 06:49:39 51°13.635 2°56.019 -999 25 9.2 100500 43
2012-05-21 06:49:44 51°13.635 2°56.019 -999 54 9.2 100500 43
2012-05-21 06:49:49 51°13.635 2°56.019 -999 265 9.2 100500 43
2012-05-21 06:49:54 51°13.635 2°56.019 -999 54 9.2 100500 43
2012-05-21 06:49:59 51°13.635 2°56.019 -999 23 9.2 100500 43
2012-05-21 06:50:04 51°13.634 2°56.019 -999 54 9.2 100500 43
2012-05-21 06:50:09 51°13.634 2°56.019 -999 23 9.2 100500 43
2012-05-21 06:50:14 51°13.635 2°56.019 -999 54 9.2 100500 43
2012-05-21 06:50:19 51°13.635 2°56.019 -999 23 9.2 100500 43
2012-05-21 06:50:24 51°13.634 2°56.019 -999 57 9.2 100500 43
2012-05-21 06:50:29 51°13.634 2°56.019 -999 24 9.2 100500 43
2012-05-21 06:50:34 51°13.634 2°56.019 -999 56 9.2 100500 43
2012-05-21 06:50:39 51°13.634 2°56.019 -999 24 9.2 100500 43
2012-05-21 06:50:44 51°13.634 2°56.019 -999 59 9.2 100500 43
2012-05-21 06:50:49 51°13.634 2°56.019 -999 266 9.2 100500 43
2012-05-21 06:50:54 51°13.634 2°56.019 -999 303 9.2 100500 43
2012-05-21 06:50:59 51°13.634 2°56.019 -999 270 9.3 100500 43
2012-05-21 06:51:04 51°13.634 2°56.019 -999 14 9.3 100500 43
2012-05-21 06:51:09 51°13.634 2°56.019 -999 27 9.2 100500 43
2012-05-21 06:51:14 51°13.634 2°56.019 -999 302 9.2 100500 43
2012-05-21 06:51:19 51°13.634 2°56.019 -999 26 9.3 100500 43
2012-05-21 06:51:24 51°13.634 2°56.019 -999 52 9.3 100500 43
2012-05-21 06:51:29 51°13.634 2°56.019 -999 26 9.2 100500 43
2012-05-21 06:51:34 51°13.634 2°56.019 -999 306 9.2 100500 43
2012-05-21 06:51:39 51°13.634 2°56.019 -999 26 9.3 100500 42
2012-05-21 06:51:44 51°13.634 2°56.019 -999 307 9.3 100500 42
2012-05-21 06:51:49 51°13.634 2°56.019 -999 26 9.3 100500 43
2012-05-21 06:51:54 51°13.634 2°56.019 -999 305 9.3 100500 43
2012-05-21 06:51:58 51°13.634 2°56.019 -999 26 9.2 100490 41
2012-05-21 06:52:03 51°13.634 2°56.019 -999 281 9.2 100490 41
2012-05-21 06:52:09 51°13.634 2°56.019 -999 268 9.2 100500 43
2012-05-21 06:52:14 51°13.634 2°56.019 -999 310 9.2 100500 43
2012-05-21 06:52:18 51°13.634 2°56.019 -999 20 9.2 100500 43
2012-05-21 06:52:24 51°13.634 2°56.019 -999 309 9.2 100500 43
2012-05-21 06:52:28 51°13.634 2°56.019 -999 269 9.2 100500 43
2012-05-21 06:52:34 51°13.634 2°56.019 -999 54 9.2 100500 43
2012-05-21 06:52:39 51°13.634 2°56.019 -999 19 9.2 100500 42
2012-05-21 06:52:44 51°13.634 2°56.019 -999 54 9.2 100500 42
2012-05-21 06:52:48 51°13.634 2°56.019 -999 13 9.2 100500 43
2012-05-21 06:52:53 51°13.634 2°56.019 -999 54 9.2 100500 43
2012-05-21 06:52:59 51°13.634 2°56.019 -999 24 9.2 100500 43
2012-05-21 06:53:04 51°13.634 2°56.019 -999 54 9.2 100500 43
2012-05-21 06:53:09 51°13.634 2°56.019 -999 24 9.2 100500 43
2012-05-21 06:53:14 51°13.634 2°56.019 -999 54 9.2 100500 43
2012-05-21 06:53:19 51°13.634 2°56.019 -999 23 9.2 100500 43
2012-05-21 06:53:24 51°13.634 2°56.019 -999 54 9.2 100500 43
2012-05-21 06:53:29 51°13.634 2°56.019 -999 23 9.2 100500 43
2012-05-21 06:53:33 51°13.634 2°56.019 -999 54 9.2 100500 43
2012-05-21 06:53:39 51°13.634 2°56.02 -999 23 9.2 100500 42
2012-05-21 06:53:43 51°13.634 2°56.02 -999 54 9.2 100500 42
2012-05-21 06:53:48 51°13.634 2°56.02 -999 23 9.2 100500 43
2012-05-21 06:53:53 51°13.634 2°56.02 -999 56 9.2 100500 43
2012-05-21 06:53:58 51°13.634 2°56.02 -999 24 9.2 100500 43
2012-05-21 06:54:03 51°13.634 2°56.019 -999 77 9.2 100500 43
2012-05-21 06:54:08 51°13.634 2°56.02 -999 24 9.2 100500 43
2012-05-21 06:54:13 51°13.634 2°56.019 -999 54 9.2 100500 43
2012-05-21 06:54:18 51°13.635 2°56.019 -999 23 9.2 100500 42
2012-05-21 06:54:23 51°13.635 2°56.019 -999 54 9.2 100500 42
2012-05-21 06:54:28 51°13.635 2°56.019 -999 23 9.2 100500 43
2012-05-21 06:54:33 51°13.635 2°56.019 -999 54 9.2 100500 43
2012-05-21 06:54:38 51°13.635 2°56.019 -999 24 9.2 100500 43
2012-05-21 06:54:43 51°13.635 2°56.019 -999 56 9.2 100500 43
2012-05-21 06:54:48 51°13.635 2°56.019 -999 24 9.1 100500 43
2012-05-21 06:54:54 51°13.635 2°56.019 -999 310 9.1 100500 43
2012-05-21 06:54:59 51°13.635 2°56.019 -999 24 9.2 100500 43
2012-05-21 06:55:04 51°13.635 2°56.019 -999 310 9.2 100500 43
2012-05-21 06:55:09 51°13.635 2°56.019 -999 24 9.2 100500 43
2012-05-21 06:55:14 51°13.635 2°56.019 -999 56 9.2 100500 43
2012-05-21 06:55:19 51°13.635 2°56.019 -999 24 9.1 100500 43
2012-05-21 06:55:24 51°13.635 2°56.019 -999 54 9.1 100500 43
2012-05-21 06:55:29 51°13.635 2°56.019 -999 25 9.1 100500 43
2012-05-21 06:55:34 51°13.635 2°56.019 -999 54 9.1 100500 43
2012-05-21 06:55:39 51°13.635 2°56.019 -999 23 9.2 100500 43
2012-05-21 06:55:44 51°13.635 2°56.019 -999 54 9.2 100500 43
2012-05-21 06:55:48 51°13.635 2°56.019 -999 23 9.2 100500 43
2012-05-21 06:55:53 51°13.635 2°56.019 -999 55 9.2 100500 43
2012-05-21 06:55:58 51°13.635 2°56.019 -999 23 9.2 100500 43
2012-05-21 06:56:03 51°13.635 2°56.019 -999 78 9.2 100500 43
2012-05-21 06:56:08 51°13.636 2°56.019 -999 23 9.2 100490 43
2012-05-21 06:56:14 51°13.636 2°56.019 -999 54 9.2 100490 43
2012-05-21 06:56:19 51°13.636 2°56.019 -999 25 9.2 100490 43
2012-05-21 06:56:24 51°13.636 2°56.019 -999 303 9.2 100490 43
2012-05-21 06:56:29 51°13.636 2°56.019 -999 24 9.2 100500 43
2012-05-21 06:56:34 51°13.636 2°56.019 -999 58 9.2 100500 43
2012-05-21 06:56:39 51°13.636 2°56.019 -999 25 9.2 100490 43
2012-05-21 06:56:44 51°13.636 2°56.019 -999 54 9.2 100490 43
2012-05-21 06:56:49 51°13.636 2°56.019 -999 23 9.2 100490 42
2012-05-21 06:56:54 51°13.636 2°56.019 -999 55 9.2 100490 42
2012-05-21 06:56:58 51°13.636 2°56.019 -999 24 9.2 100490 42
2012-05-21 06:57:03 51°13.636 2°56.019 -999 310 9.2 100490 42
2012-05-21 06:57:09 51°13.636 2°56.019 -999 259 9.3 100490 43
2012-05-21 06:57:14 51°13.637 2°56.019 -999 56 9.3 100490 43
2012-05-21 06:57:18 51°13.637 2°56.019 -999 25 9.2 100490 43
2012-05-21 06:57:23 51°13.637 2°56.019 -999 310 9.2 100490 43
2012-05-21 06:57:28 51°13.637 2°56.019 -999 25 9.2 100490 43
2012-05-21 06:57:33 51°13.637 2°56.019 -999 346 9.2 100490 43
2012-05-21 06:57:38 51°13.637 2°56.019 -999 27 9.3 100490 43
2012-05-21 06:57:43 51°13.637 2°56.019 -999 58 9.3 100490 43
2012-05-21 06:57:48 51°13.637 2°56.019 -999 25 9.3 100490 43
2012-05-21 06:57:53 51°13.637 2°56.019 -999 54 9.3 100490 43
2012-05-21 06:57:58 51°13.637 2°56.019 -999 269 9.3 100490 43
2012-05-21 06:58:04 51°13.637 2°56.019 -999 286 9.3 100490 43
2012-05-21 06:58:08 51°13.637 2°56.019 -999 26 9.3 100490 43
2012-05-21 06:58:14 51°13.637 2°56.019 -999 54 9.3 100490 43
2012-05-21 06:58:18 51°13.637 2°56.019 -999 261 9.3 100490 43
2012-05-21 06:58:23 51°13.637 2°56.019 -999 54 9.3 100490 43
2012-05-21 06:58:28 51°13.637 2°56.019 -999 24 9.3 100490 43
2012-05-21 06:58:33 51°13.637 2°56.019 -999 56 9.3 100490 43
2012-05-21 06:58:38 51°13.637 2°56.019 -999 24 9.3 100490 43
2012-05-21 06:58:44 51°13.637 2°56.019 -999 55 9.3 100490 43
2012-05-21 06:58:48 51°13.637 2°56.019 -999 24 9.3 100490 44
2012-05-21 06:58:53 51°13.637 2°56.019 -999 54 9.3 100490 44
2012-05-21 06:58:58 51°13.637 2°56.019 -999 24 9.3 100490 43
2012-05-21 06:59:03 51°13.637 2°56.019 -999 49 9.3 100490 43
2012-05-21 06:59:08 51°13.637 2°56.019 -999 25 9.3 100490 43
2012-05-21 06:59:13 51°13.637 2°56.018 -999 54 9.3 100490 43
2012-05-21 06:59:18 51°13.637 2°56.018 -999 23 9.3 100490 43
2012-05-21 06:59:24 51°13.637 2°56.018 -999 54 9.3 100490 43
2012-05-21 06:59:28 51°13.637 2°56.018 -999 23 9.3 100490 43
2012-05-21 06:59:33 51°13.637 2°56.018 -999 54 9.3 100490 43
2012-05-21 06:59:38 51°13.637 2°56.018 -999 24 9.3 100490 42
2012-05-21 06:59:44 51°13.637 2°56.018 -999 54 9.3 100490 42
2012-05-21 06:59:49 51°13.637 2°56.018 -999 265 9.3 100490 43
2012-05-21 06:59:54 51°13.637 2°56.018 -999 54 9.3 100490 43
2012-05-21 06:59:59 51°13.637 2°56.019 -999 23 9.2 100490 43
2012-05-21 07:00:04 51°13.637 2°56.018 -999 55 9.2 100490 43
2012-05-21 07:00:09 51°13.637 2°56.018 -999 24 9.2 100490 43
2012-05-21 07:00:14 51°13.637 2°56.018 -999 54 9.2 100490 43
2012-05-21 07:00:19 51°13.637 2°56.018 -999 23 9.2 100490 43
2012-05-21 07:00:24 51°13.637 2°56.018 -999 55 9.2 100490 43
2012-05-21 07:00:29 51°13.637 2°56.019 -999 23 9.2 100490 43
2012-05-21 07:00:34 51°13.637 2°56.019 -999 54 9.2 100490 43
2012-05-21 07:00:39 51°13.637 2°56.019 -999 24 9.2 100490 43
2012-05-21 07:00:44 51°13.637 2°56.019 -999 56 9.2 100490 43
2012-05-21 07:00:49 51°13.637 2°56.019 -999 24 9.2 100480 43
2012-05-21 07:00:54 51°13.637 2°56.019 -999 54 9.2 100480 43
2012-05-21 07:00:59 51°13.637 2°56.019 -999 23 9.2 100480 43
2012-05-21 07:01:04 51°13.637 2°56.019 -999 78 9.2 100480 43
2012-05-21 07:01:09 51°13.637 2°56.019 -999 23 9.2 100480 43
2012-05-21 07:01:14 51°13.637 2°56.018 -999 54 9.2 100480 43
2012-05-21 07:01:19 51°13.637 2°56.018 -999 24 9.2 100490 43
2012-05-21 07:01:24 51°13.637 2°56.018 -999 54 9.2 100490 43
2012-05-21 07:01:29 51°13.637 2°56.018 -999 23 9.2 100490 43
2012-05-21 07:01:34 51°13.637 2°56.019 -999 55 9.2 100490 43
2012-05-21 07:01:39 51°13.637 2°56.019 -999 24 9.2 100480 43
2012-05-21 07:01:44 51°13.637 2°56.019 -999 57 9.2 100480 43
2012-05-21 07:01:49 51°13.637 2°56.019 -999 24 9.2 100480 43
2012-05-21 07:01:54 51°13.637 2°56.019 -999 55 9.2 100480 43
2012-05-21 07:01:59 51°13.637 2°56.019 -999 23 9.2 100490 43
2012-05-21 07:02:04 51°13.637 2°56.019 -999 54 9.2 100490 43
2012-05-21 07:02:09 51°13.637 2°56.019 -999 23 9.2 100480 43
2012-05-21 07:02:14 51°13.638 2°56.019 -999 54 9.2 100480 43
2012-05-21 07:02:19 51°13.637 2°56.019 -999 24 9.2 100480 42
2012-05-21 07:02:24 51°13.637 2°56.019 -999 54 9.2 100480 42
2012-05-21 07:02:29 51°13.638 2°56.019 -999 23 9.2 100480 43
2012-05-21 07:02:34 51°13.638 2°56.019 -999 56 9.2 100480 43
2012-05-21 07:02:39 51°13.637 2°56.019 -999 24 9.2 100490 43
2012-05-21 07:02:44 51°13.638 2°56.019 -999 54 9.2 100490 43
2012-05-21 07:02:49 51°13.638 2°56.019 -999 23 9.2 100480 43
2012-05-21 07:02:54 51°13.638 2°56.019 -999 54 9.2 100480 43
2012-05-21 07:02:59 51°13.638 2°56.02 -999 23 9.2 100480 43
2012-05-21 07:03:04 51°13.638 2°56.02 -999 78 9.2 100480 43
2012-05-21 07:03:09 51°13.639 2°56.02 -999 23 9.2 100480 43
2012-05-21 07:03:14 51°13.639 2°56.02 -999 54 9.2 100480 43
2012-05-21 07:03:19 51°13.639 2°56.02 -999 23 9.2 100490 43
2012-05-21 07:03:24 51°13.638 2°56.02 -999 54 9.2 100490 43
2012-05-21 07:03:29 51°13.638 2°56.02 -999 23 9.2 100490 43
2012-05-21 07:03:34 51°13.638 2°56.02 -999 54 9.2 100490 43
2012-05-21 07:03:39 51°13.638 2°56.02 -999 23 9.2 100490 43
2012-05-21 07:03:44 51°13.638 2°56.02 -999 54 9.2 100490 43
2012-05-21 07:03:49 51°13.638 2°56.021 -999 23 9.2 100480 43
2012-05-21 07:03:54 51°13.638 2°56.02 -999 55 9.2 100480 43
2012-05-21 07:03:59 51°13.638 2°56.02 -999 24 9.2 100490 43
2012-05-21 07:04:04 51°13.638 2°56.02 -999 56 9.2 100490 43
2012-05-21 07:04:09 51°13.638 2°56.02 -999 24 9.2 100490 43
2012-05-21 07:04:14 51°13.638 2°56.02 -999 54 9.2 100490 43
2012-05-21 07:04:19 51°13.638 2°56.02 -999 266 9.2 100490 43
2012-05-21 07:04:24 51°13.638 2°56.02 -999 56 9.2 100490 43
2012-05-21 07:04:29 51°13.638 2°56.02 -999 24 9.2 100490 43
2012-05-21 07:04:34 51°13.638 2°56.02 -999 54 9.2 100490 43
2012-05-21 07:04:39 51°13.638 2°56.02 -999 23 9.2 100490 43
2012-05-21 07:04:44 51°13.638 2°56.019 -999 54 9.2 100490 43
2012-05-21 07:04:49 51°13.638 2°56.019 -999 24 9.2 100490 43
2012-05-21 07:04:54 51°13.638 2°56.019 -999 50 9.2 100490 43
2012-05-21 07:04:59 51°13.638 2°56.019 -999 23 9.2 100490 42
2012-05-21 07:05:04 51°13.638 2°56.019 -999 78 9.2 100490 42
2012-05-21 07:05:09 51°13.638 2°56.019 -999 24 9.2 100490 43
2012-05-21 07:05:14 51°13.638 2°56.019 -999 54 9.2 100490 43
2012-05-21 07:05:19 51°13.638 2°56.019 -999 24 9.2 100490 43
2012-05-21 07:05:24 51°13.638 2°56.019 -999 57 9.2 100490 43
2012-05-21 07:05:29 51°13.638 2°56.019 -999 24 9.2 100490 43
2012-05-21 07:05:34 51°13.638 2°56.019 -999 54 9.2 100490 43
2012-05-21 07:05:39 51°13.638 2°56.019 -999 23 9.2 100490 43
2012-05-21 07:05:44 51°13.638 2°56.019 -999 54 9.2 100490 43
2012-05-21 07:05:49 51°13.638 2°56.019 -999 24 9.2 100480 43
2012-05-21 07:05:54 51°13.638 2°56.019 -999 55 9.2 100480 43
2012-05-21 07:05:59 51°13.638 2°56.019 -999 23 9.1 100490 43
2012-05-21 07:06:04 51°13.638 2°56.019 -999 55 9.1 100490 43
2012-05-21 07:06:09 51°13.638 2°56.019 -999 24 9.1 100490 43
2012-05-21 07:06:14 51°13.638 2°56.019 -999 54 9.1 100490 43
2012-05-21 07:06:19 51°13.638 2°56.019 -999 24 9.1 100490 43
2012-05-21 07:06:24 51°13.638 2°56.019 -999 54 9.1 100490 43
2012-05-21 07:06:29 51°13.638 2°56.019 -999 23 9.1 100490 43
2012-05-21 07:06:34 51°13.638 2°56.019 -999 54 9.1 100490 43
2012-05-21 07:06:39 51°13.638 2°56.019 -999 23 9.1 100490 43
2012-05-21 07:06:44 51°13.638 2°56.019 -999 54 9.1 100490 43
2012-05-21 07:06:49 51°13.638 2°56.019 -999 23 9.1 100490 43
2012-05-21 07:06:54 51°13.638 2°56.019 -999 54 9.1 100490 43
2012-05-21 07:06:59 51°13.637 2°56.019 -999 24 9.1 100490 43
2012-05-21 07:07:03 51°13.637 2°56.019 -999 78 9.1 100490 43
2012-05-21 07:07:09 51°13.637 2°56.019 -999 23 9.1 100490 43
2012-05-21 07:07:14 51°13.637 2°56.019 -999 54 9.1 100490 43
2012-05-21 07:07:19 51°13.637 2°56.019 -999 23 9.1 100490 43
2012-05-21 07:07:24 51°13.638 2°56.019 -999 58 9.1 100490 43
2012-05-21 07:07:29 51°13.638 2°56.019 -999 25 9.1 100490 43
2012-05-21 07:07:34 51°13.638 2°56.019 -999 56 9.1 100490 43
2012-05-21 07:07:39 51°13.638 2°56.019 -999 24 9.1 100490 42
2012-05-21 07:07:44 51°13.638 2°56.019 -999 54 9.1 100490 42
2012-05-21 07:07:49 51°13.638 2°56.019 -999 23 9.1 100490 43
2012-05-21 07:07:54 51°13.638 2°56.019 -999 54 9.1 100490 43
2012-05-21 07:07:59 51°13.638 2°56.019 -999 25 9.1 100480 43
2012-05-21 07:08:04 51°13.638 2°56.019 -999 54 9.1 100480 43
2012-05-21 07:08:09 51°13.638 2°56.019 -999 18 9.1 100480 43
2012-05-21 07:08:14 51°13.638 2°56.019 -999 56 9.1 100480 43
2012-05-21 07:08:19 51°13.638 2°56.018 -999 24 9.2 100490 43
2012-05-21 07:08:24 51°13.637 2°56.018 -999 54 9.2 100490 43
2012-05-21 07:08:29 51°13.637 2°56.018 -999 23 9.2 100490 43
2012-05-21 07:08:34 51°13.637 2°56.018 -999 54 9.2 100490 43
2012-05-21 07:08:39 51°13.637 2°56.018 -999 24 9.1 100490 43
2012-05-21 07:08:44 51°13.637 2°56.018 -999 54 9.1 100490 43
2012-05-21 07:08:49 51°13.637 2°56.018 -999 23 9.2 100480 43
2012-05-21 07:08:54 51°13.638 2°56.018 -999 54 9.2 100480 43
2012-05-21 07:08:59 51°13.637 2°56.018 -999 23 9.2 100490 43
2012-05-21 07:09:04 51°13.637 2°56.018 -999 78 9.2 100490 43
2012-05-21 07:09:09 51°13.637 2°56.019 -999 23 9.2 100480 43
2012-05-21 07:09:14 51°13.637 2°56.019 -999 55 9.2 100480 43
2012-05-21 07:09:19 51°13.637 2°56.019 -999 23 9.2 100480 43
2012-05-21 07:09:23 51°13.637 2°56.019 -999 54 9.2 100480 43
2012-05-21 07:09:29 51°13.637 2°56.019 -999 23 9.2 100480 43
2012-05-21 07:09:34 51°13.637 2°56.019 -999 54 9.2 100480 43
2012-05-21 07:09:39 51°13.637 2°56.019 -999 23 9.2 100480 43
2012-05-21 07:09:44 51°13.637 2°56.019 -999 55 9.2 100480 43
2012-05-21 07:09:49 51°13.637 2°56.019 -999 24 9.2 100480 44
2012-05-21 07:09:54 51°13.637 2°56.019 -999 54 9.2 100480 44
2012-05-21 07:09:59 51°13.636 2°56.019 -999 23 9.2 100480 43
2012-05-21 07:10:04 51°13.637 2°56.019 -999 306 9.2 100480 43
2012-05-21 07:10:09 51°13.637 2°56.019 -999 26 9.2 100480 43
2012-05-21 07:10:14 51°13.637 2°56.019 -999 54 9.2 100480 43
2012-05-21 07:10:19 51°13.637 2°56.019 -999 24 9.3 100480 41
2012-05-21 07:10:24 51°13.637 2°56.019 -999 54 9.3 100480 41
2012-05-21 07:10:29 51°13.637 2°56.019 -999 23 9.3 100480 43
2012-05-21 07:10:34 51°13.637 2°56.019 -999 54 9.3 100480 43
2012-05-21 07:10:39 51°13.637 2°56.019 -999 23 9.3 100480 43
2012-05-21 07:10:44 51°13.637 2°56.019 -999 55 9.3 100480 43
2012-05-21 07:10:49 51°13.637 2°56.019 -999 23 9.2 100480 43
2012-05-21 07:10:53 51°13.637 2°56.018 -999 310 9.2 100480 43
2012-05-21 07:10:59 51°13.636 2°56.019 -999 26 9.2 100480 44
2012-05-21 07:11:04 51°13.636 2°56.019 -999 78 9.2 100480 44
2012-05-21 07:11:09 51°13.636 2°56.019 -999 23 9.2 100470 43
2012-05-21 07:11:14 51°13.636 2°56.019 -999 54 9.2 100470 43
2012-05-21 07:11:19 51°13.636 2°56.019 -999 25 9.2 100480 43
2012-05-21 07:11:24 51°13.636 2°56.019 -999 55 9.2 100480 43
2012-05-21 07:11:29 51°13.636 2°56.019 -999 23 9.2 100470 43
2012-05-21 07:11:34 51°13.636 2°56.019 -999 54 9.2 100470 43
2012-05-21 07:11:39 51°13.636 2°56.019 -999 23 9.3 100480 41
2012-05-21 07:11:43 51°13.636 2°56.019 -999 54 9.3 100480 41
2012-05-21 07:11:49 51°13.635 2°56.019 -999 19 9.2 100470 43
2012-05-21 07:11:54 51°13.635 2°56.019 -999 55 9.2 100470 43
2012-05-21 07:11:59 51°13.635 2°56.019 -999 23 9.2 100470 43
2012-05-21 07:12:04 51°13.635 2°56.019 -999 54 9.2 100470 43
2012-05-21 07:12:09 51°13.635 2°56.019 -999 23 9.3 100470 43
2012-05-21 07:12:14 51°13.635 2°56.019 -999 54 9.3 100470 43
2012-05-21 07:12:19 51°13.635 2°56.019 -999 23 9.2 100470 43
2012-05-21 07:12:24 51°13.635 2°56.019 -999 55 9.2 100470 43
2012-05-21 07:12:29 51°13.635 2°56.019 -999 23 9.3 100470 43
2012-05-21 07:12:34 51°13.635 2°56.019 -999 54 9.3 100470 43
2012-05-21 07:12:39 51°13.635 2°56.019 -999 23 9.2 100470 43
2012-05-21 07:12:44 51°13.634 2°56.019 -999 55 9.2 100470 43
2012-05-21 07:12:49 51°13.634 2°56.019 -999 23 9.2 100470 43
2012-05-21 07:12:54 51°13.634 2°56.019 -999 54 9.2 100470 43
2012-05-21 07:12:59 51°13.634 2°56.019 -999 23 9.2 100470 42
2012-05-21 07:13:04 51°13.634 2°56.019 -999 78 9.2 100470 42
2012-05-21 07:13:09 51°13.634 2°56.019 -999 24 9.2 100470 43
2012-05-21 07:13:14 51°13.635 2°56.019 -999 55 9.2 100470 43
2012-05-21 07:13:19 51°13.634 2°56.019 -999 24 9.2 100470 43
2012-05-21 07:13:24 51°13.635 2°56.019 -999 54 9.2 100470 43
2012-05-21 07:13:29 51°13.635 2°56.019 -999 24 9.2 100470 43
2012-05-21 07:13:33 51°13.635 2°56.019 -999 54 9.2 100470 43
2012-05-21 07:13:39 51°13.635 2°56.019 -999 23 9.2 100470 43
2012-05-21 07:13:44 51°13.635 2°56.019 -999 54 9.2 100470 43
2012-05-21 07:13:48 51°13.635 2°56.019 -999 23 9.2 100470 43
2012-05-21 07:13:54 51°13.635 2°56.019 -999 54 9.2 100470 43
2012-05-21 07:13:59 51°13.634 2°56.019 -999 23 9.2 100470 43
2012-05-21 07:14:04 51°13.635 2°56.019 -999 54 9.2 100470 43
2012-05-21 07:14:09 51°13.635 2°56.019 -999 23 9.3 100470 43
2012-05-21 07:14:14 51°13.635 2°56.019 -999 50 9.3 100470 43
2012-05-21 07:14:19 51°13.634 2°56.019 -999 25 9.2 100470 43
2012-05-21 07:14:23 51°13.634 2°56.019 -999 54 9.2 100470 43
2012-05-21 07:14:29 51°13.634 2°56.019 -999 23 9.3 100470 43
2012-05-21 07:14:34 51°13.634 2°56.019 -999 54 9.3 100470 43
2012-05-21 07:14:39 51°13.634 2°56.019 -999 23 9.3 100470 43
2012-05-21 07:14:44 51°13.634 2°56.019 -999 55 9.3 100470 43
2012-05-21 07:14:49 51°13.634 2°56.019 -999 23 9.3 100460 43
2012-05-21 07:14:54 51°13.634 2°56.019 -999 54 9.3 100460 43
2012-05-21 07:14:59 51°13.634 2°56.019 -999 23 9.3 100470 43
2012-05-21 07:15:04 51°13.634 2°56.019 -999 78 9.3 100470 43
2012-05-21 07:15:09 51°13.634 2°56.019 -999 23 9.2 100460 43
2012-05-21 07:15:14 51°13.634 2°56.019 -999 54 9.2 100460 43
2012-05-21 07:15:19 51°13.635 2°56.019 -999 23 9.2 100470 43
2012-05-21 07:15:24 51°13.635 2°56.019 -999 54 9.2 100470 43
2012-05-21 07:15:29 51°13.635 2°56.019 -999 23 9.2 100470 43
2012-05-21 07:15:34 51°13.634 2°56.019 -999 54 9.2 100470 43
2012-05-21 07:15:39 51°13.634 2°56.019 -999 264 9.3 100470 42
2012-05-21 07:15:44 51°13.634 2°56.019 -999 56 9.3 100470 42
2012-05-21 07:15:49 51°13.634 2°56.019 -999 24 9.2 100470 43
2012-05-21 07:15:54 51°13.634 2°56.019 -999 54 9.2 100470 43
2012-05-21 07:15:59 51°13.634 2°56.019 -999 24 9.2 100460 42
2012-05-21 07:16:04 51°13.635 2°56.019 -999 56 9.2 100460 42
2012-05-21 07:16:09 51°13.635 2°56.018 -999 24 9.2 100470 43
2012-05-21 07:16:14 51°13.635 2°56.018 -999 54 9.2 100470 43
2012-05-21 07:16:19 51°13.635 2°56.018 -999 268 9.2 100470 43
2012-05-21 07:16:24 51°13.635 2°56.018 -999 311 9.2 100470 43
2012-05-21 07:16:29 51°13.635 2°56.017 -999 21 9.2 100470 43
2012-05-21 07:16:34 51°13.635 2°56.017 -999 54 9.2 100470 43
2012-05-21 07:16:39 51°13.635 2°56.018 -999 355 9.2 100470 43
2012-05-21 07:16:44 51°13.635 2°56.018 -999 54 9.2 100470 43
2012-05-21 07:16:49 51°13.635 2°56.018 -999 270 9.2 100470 43
2012-05-21 07:16:54 51°13.635 2°56.018 -999 305 9.2 100470 43
2012-05-21 07:16:59 51°13.635 2°56.018 -999 24 9.2 100470 43
2012-05-21 07:17:04 51°13.635 2°56.018 -999 78 9.2 100470 43
2012-05-21 07:17:09 51°13.635 2°56.018 -999 24 9.2 100470 43
2012-05-21 07:17:14 51°13.635 2°56.018 -999 57 9.2 100470 43
2012-05-21 07:17:19 51°13.635 2°56.018 -999 26 9.3 100470 43
2012-05-21 07:17:23 51°13.635 2°56.018 -999 54 9.3 100470 43
2012-05-21 07:17:29 51°13.635 2°56.018 -999 24 9.3 100470 43
2012-05-21 07:17:34 51°13.635 2°56.018 -999 55 9.3 100470 43
2012-05-21 07:17:39 51°13.636 2°56.018 -999 23 9.3 100470 43
2012-05-21 07:17:44 51°13.636 2°56.018 -999 55 9.3 100470 43
2012-05-21 07:17:49 51°13.636 2°56.018 -999 24 9.3 100470 43
2012-05-21 07:17:54 51°13.636 2°56.018 -999 54 9.3 100470 43
2012-05-21 07:17:59 51°13.636 2°56.017 -999 24 9.3 100470 43
2012-05-21 07:18:04 51°13.636 2°56.017 -999 78 9.3 100470 43
2012-05-21 07:18:09 51°13.635 2°56.017 -999 23 9.3 100470 43
2012-05-21 07:18:14 51°13.636 2°56.017 -999 54 9.3 100470 43
2012-05-21 07:18:19 51°13.636 2°56.017 -999 23 9.3 100470 42
2012-05-21 07:18:24 51°13.636 2°56.017 -999 56 9.3 100470 42
2012-05-21 07:18:29 51°13.635 2°56.017 -999 24 9.3 100470 43
2012-05-21 07:18:34 51°13.635 2°56.017 -999 55 9.3 100470 43
2012-05-21 07:18:39 51°13.635 2°56.017 -999 24 9.3 100460 43
2012-05-21 07:18:44 51°13.635 2°56.017 -999 54 9.3 100460 43
2012-05-21 07:18:49 51°13.635 2°56.017 -999 23 9.3 100470 43
2012-05-21 07:18:54 51°13.636 2°56.017 -999 54 9.3 100470 43
2012-05-21 07:18:59 51°13.636 2°56.017 -999 24 9.3 100470 43
2012-05-21 07:19:04 51°13.636 2°56.017 -999 55 9.3 100470 43
2012-05-21 07:19:09 51°13.636 2°56.017 -999 25 9.3 100470 43
2012-05-21 07:19:14 51°13.636 2°56.017 -999 54 9.3 100470 43
2012-05-21 07:19:19 51°13.636 2°56.017 -999 23 9.2 100470 43
2012-05-21 07:19:23 51°13.636 2°56.017 -999 54 9.2 100470 43
2012-05-21 07:19:29 51°13.636 2°56.017 -999 24 9.2 100470 43
2012-05-21 07:19:34 51°13.636 2°56.017 -999 54 9.2 100470 43
2012-05-21 07:19:39 51°13.636 2°56.017 -999 23 9.2 100470 43
2012-05-21 07:19:44 51°13.636 2°56.017 -999 55 9.2 100470 43
2012-05-21 07:19:49 51°13.636 2°56.017 -999 23 9.2 100470 43
2012-05-21 07:19:54 51°13.636 2°56.017 -999 56 9.2 100470 43
2012-05-21 07:19:59 51°13.636 2°56.017 -999 24 9.2 100470 43
2012-05-21 07:20:04 51°13.636 2°56.017 -999 55 9.2 100470 43
2012-05-21 07:20:09 51°13.636 2°56.017 -999 24 9.2 100470 43
2012-05-21 07:20:14 51°13.636 2°56.017 -999 55 9.2 100470 43
2012-05-21 07:20:18 51°13.636 2°56.017 -999 25 9.2 100470 43
2012-05-21 07:20:24 51°13.636 2°56.017 -999 54 9.2 100470 43
2012-05-21 07:20:29 51°13.636 2°56.017 -999 24 9.2 100470 43
2012-05-21 07:20:34 51°13.636 2°56.017 -999 54 9.2 100470 43
2012-05-21 07:20:39 51°13.636 2°56.017 -999 23 9.2 100470 43
2012-05-21 07:20:44 51°13.636 2°56.017 -999 54 9.2 100470 43
2012-05-21 07:20:49 51°13.636 2°56.017 -999 25 9.2 100470 43
2012-05-21 07:20:54 51°13.636 2°56.017 -999 54 9.2 100470 43
2012-05-21 07:20:59 51°13.636 2°56.017 -999 24 9.2 100470 42
2012-05-21 07:21:04 51°13.636 2°56.017 -999 78 9.2 100470 42
2012-05-21 07:21:09 51°13.636 2°56.017 -999 23 9.2 100470 43
2012-05-21 07:21:14 51°13.636 2°56.017 -999 54 9.2 100470 43
2012-05-21 07:21:19 51°13.636 2°56.016 -999 23 9.2 100470 43
2012-05-21 07:21:24 51°13.636 2°56.016 -999 54 9.2 100470 43
2012-05-21 07:21:29 51°13.636 2°56.016 -999 24 9.2 100470 43
2012-05-21 07:21:34 51°13.636 2°56.016 -999 56 9.2 100470 43
2012-05-21 07:21:39 51°13.636 2°56.016 -999 23 9.2 100470 43
2012-05-21 07:21:44 51°13.636 2°56.016 -999 310 9.2 100470 43
2012-05-21 07:21:49 51°13.636 2°56.016 -999 24 9.2 100470 43
2012-05-21 07:21:54 51°13.636 2°56.016 -999 55 9.2 100470 43
2012-05-21 07:21:59 51°13.636 2°56.016 -999 23 9.2 100470 43
2012-05-21 07:22:04 51°13.636 2°56.016 -999 54 9.2 100470 43
2012-05-21 07:22:09 51°13.636 2°56.016 -999 24 9.2 100470 43
2012-05-21 07:22:14 51°13.636 2°56.016 -999 55 9.2 100470 43
2012-05-21 07:22:19 51°13.636 2°56.016 -999 24 9.2 100470 43
2012-05-21 07:22:24 51°13.637 2°56.016 -999 54 9.2 100470 43
2012-05-21 07:22:29 51°13.637 2°56.015 -999 23 9.2 100470 43
2012-05-21 07:22:34 51°13.637 2°56.015 -999 55 9.2 100470 43
2012-05-21 07:22:39 51°13.637 2°56.015 -999 24 9.2 100470 43
2012-05-21 07:22:44 51°13.637 2°56.015 -999 54 9.2 100470 43
2012-05-21 07:22:49 51°13.637 2°56.015 -999 23 9.2 100470 43
2012-05-21 07:22:54 51°13.637 2°56.015 -999 54 9.2 100470 43
2012-05-21 07:22:58 51°13.637 2°56.015 -999 23 9.2 100460 43
2012-05-21 07:23:04 51°13.637 2°56.015 -999 286 9.2 100460 43
2012-05-21 07:23:09 51°13.637 2°56.015 -999 24 9.2 100470 43
2012-05-21 07:23:14 51°13.637 2°56.015 -999 54 9.2 100470 43
2012-05-21 07:23:19 51°13.637 2°56.015 -999 24 9.2 100470 43
2012-05-21 07:23:24 51°13.637 2°56.015 -999 54 9.2 100470 43
2012-05-21 07:23:29 51°13.637 2°56.015 -999 24 9.2 100470 43
2012-05-21 07:23:34 51°13.637 2°56.015 -999 54 9.2 100470 43
2012-05-21 07:23:39 51°13.637 2°56.015 -999 23 9.2 100470 42
2012-05-21 07:23:44 51°13.637 2°56.015 -999 54 9.2 100470 42
2012-05-21 07:23:49 51°13.637 2°56.016 -999 23 9.2 100470 43
2012-05-21 07:23:54 51°13.637 2°56.016 -999 54 9.2 100470 43
2012-05-21 07:23:59 51°13.637 2°56.015 -999 24 9.2 100460 43
2012-05-21 07:24:04 51°13.637 2°56.015 -999 305 9.2 100460 43
2012-05-21 07:24:09 51°13.637 2°56.015 -999 23 9.2 100460 43
2012-05-21 07:24:14 51°13.637 2°56.015 -999 55 9.2 100460 43
2012-05-21 07:24:19 51°13.637 2°56.015 -999 24 9.2 100460 43
2012-05-21 07:24:24 51°13.638 2°56.015 -999 54 9.2 100460 43
2012-05-21 07:24:29 51°13.638 2°56.015 -999 18 9.2 100460 44
2012-05-21 07:24:34 51°13.638 2°56.015 -999 54 9.2 100460 44
2012-05-21 07:24:39 51°13.638 2°56.015 -999 23 9.2 100460 43
2012-05-21 07:24:44 51°13.638 2°56.015 -999 54 9.2 100460 43
2012-05-21 07:24:49 51°13.638 2°56.014 -999 23 9.2 100460 43
2012-05-21 07:24:54 51°13.638 2°56.014 -999 54 9.2 100460 43
2012-05-21 07:24:59 51°13.638 2°56.014 -999 24 9.2 100470 43
2012-05-21 07:25:03 51°13.638 2°56.014 -999 78 9.2 100470 43
2012-05-21 07:25:09 51°13.638 2°56.014 -999 23 9.2 100460 43
2012-05-21 07:25:14 51°13.638 2°56.014 -999 54 9.2 100460 43
2012-05-21 07:25:19 51°13.638 2°56.014 -999 24 9.3 100460 43
2012-05-21 07:25:23 51°13.638 2°56.014 -999 54 9.3 100460 43
2012-05-21 07:25:29 51°13.638 2°56.014 -999 23 9.3 100460 43
2012-05-21 07:25:34 51°13.638 2°56.014 -999 55 9.3 100460 43
2012-05-21 07:25:39 51°13.638 2°56.014 -999 23 9.3 100460 43
2012-05-21 07:25:44 51°13.638 2°56.014 -999 54 9.3 100460 43
2012-05-21 07:25:49 51°13.638 2°56.014 -999 24 9.2 100470 43
2012-05-21 07:25:54 51°13.638 2°56.014 -999 58 9.2 100470 43
2012-05-21 07:25:59 51°13.638 2°56.014 -999 25 9.2 100460 43
2012-05-21 07:26:04 51°13.638 2°56.014 -999 58 9.2 100460 43
2012-05-21 07:26:09 51°13.638 2°56.014 -999 25 9.2 100460 42
2012-05-21 07:26:14 51°13.638 2°56.015 -999 308 9.2 100460 42
2012-05-21 07:26:19 51°13.638 2°56.015 -999 25 9.3 100470 42
2012-05-21 07:26:24 51°13.638 2°56.015 -999 55 9.3 100470 42
2012-05-21 07:26:29 51°13.638 2°56.015 -999 25 9.3 100460 43
2012-05-21 07:26:34 51°13.638 2°56.015 -999 54 9.3 100460 43
2012-05-21 07:26:39 51°13.638 2°56.015 -999 23 9.3 100460 43
2012-05-21 07:26:44 51°13.638 2°56.015 -999 54 9.3 100460 43
2012-05-21 07:26:49 51°13.638 2°56.015 -999 23 9.2 100460 43
2012-05-21 07:26:53 51°13.638 2°56.015 -999 310 9.2 100460 43
2012-05-21 07:26:59 51°13.638 2°56.015 -999 26 9.2 100460 43
2012-05-21 07:27:04 51°13.638 2°56.015 -999 282 9.2 100460 43
2012-05-21 07:27:09 51°13.638 2°56.016 -999 17 9.2 100470 43
2012-05-21 07:27:14 51°13.638 2°56.016 -999 57 9.2 100470 43
2012-05-21 07:27:19 51°13.638 2°56.016 -999 270 9.2 100460 43
2012-05-21 07:27:24 51°13.638 2°56.016 -999 305 9.2 100460 43
2012-05-21 07:27:29 51°13.638 2°56.016 -999 23 9.3 100460 43
2012-05-21 07:27:34 51°13.638 2°56.016 -999 308 9.3 100460 43
2012-05-21 07:27:39 51°13.638 2°56.016 -999 270 9.2 100470 43
2012-05-21 07:27:44 51°13.638 2°56.016 -999 55 9.2 100470 43
2012-05-21 07:27:49 51°13.638 2°56.015 -999 23 9.2 100460 43
2012-05-21 07:27:54 51°13.639 2°56.015 -999 54 9.2 100460 43
2012-05-21 07:27:59 51°13.639 2°56.015 -999 23 9.2 100470 43
2012-05-21 07:28:03 51°13.639 2°56.015 -999 78 9.2 100470 43
2012-05-21 07:28:09 51°13.638 2°56.016 -999 24 9.2 100470 43
2012-05-21 07:28:14 51°13.638 2°56.016 -999 54 9.2 100470 43
2012-05-21 07:28:19 51°13.638 2°56.016 -999 23 9.3 100460 43
2012-05-21 07:28:24 51°13.639 2°56.015 -999 54 9.3 100460 43
2012-05-21 07:28:29 51°13.639 2°56.015 -999 19 9.2 100470 43
2012-05-21 07:28:34 51°13.639 2°56.015 -999 56 9.2 100470 43
2012-05-21 07:28:39 51°13.639 2°56.015 -999 24 9.3 100460 43
2012-05-21 07:28:44 51°13.639 2°56.015 -999 55 9.3 100460 43
2012-05-21 07:28:49 51°13.639 2°56.015 -999 23 9.2 100460 43
2012-05-21 07:28:54 51°13.639 2°56.015 -999 54 9.2 100460 43
2012-05-21 07:28:58 51°13.639 2°56.015 -999 24 9.2 100460 42
2012-05-21 07:29:03 51°13.639 2°56.015 -999 55 9.2 100460 42
2012-05-21 07:29:08 51°13.639 2°56.015 -999 23 9.3 100460 43
2012-05-21 07:29:13 51°13.639 2°56.015 -999 54 9.3 100460 43
2012-05-21 07:29:18 51°13.64 2°56.015 -999 23 9.3 100460 43
2012-05-21 07:29:23 51°13.639 2°56.015 -999 55 9.3 100460 43
2012-05-21 07:29:29 51°13.639 2°56.015 -999 23 9.3 100460 43
2012-05-21 07:29:34 51°13.639 2°56.015 -999 54 9.3 100460 43
2012-05-21 07:29:39 51°13.639 2°56.015 -999 23 9.3 100470 43
2012-05-21 07:29:44 51°13.639 2°56.015 -999 303 9.3 100470 43
2012-05-21 07:29:49 51°13.639 2°56.016 -999 25 9.3 100470 43
2012-05-21 07:29:54 51°13.639 2°56.016 -999 56 9.3 100470 43
2012-05-21 07:29:59 51°13.639 2°56.016 -999 26 9.3 100460 43
2012-05-21 07:30:04 51°13.639 2°56.016 -999 78 9.3 100460 43
2012-05-21 07:30:08 51°13.638 2°56.016 -999 23 9.3 100460 43
2012-05-21 07:30:14 51°13.638 2°56.016 -999 56 9.3 100460 43
2012-05-21 07:30:19 51°13.638 2°56.016 -999 24 9.3 100460 43
2012-05-21 07:30:24 51°13.638 2°56.016 -999 310 9.3 100460 43
2012-05-21 07:30:28 51°13.638 2°56.016 -999 26 9.3 100460 44
2012-05-21 07:30:34 51°13.638 2°56.016 -999 310 9.3 100460 44
2012-05-21 07:30:39 51°13.638 2°56.016 -999 25 9.3 100470 43
2012-05-21 07:30:44 51°13.638 2°56.016 -999 310 9.3 100470 43
2012-05-21 07:30:49 51°13.638 2°56.016 -999 26 9.3 100460 44
2012-05-21 07:30:54 51°13.638 2°56.016 -999 54 9.3 100460 44
2012-05-21 07:30:59 51°13.638 2°56.017 -999 23 9.3 100460 44
2012-05-21 07:31:03 51°13.638 2°56.017 -999 54 9.3 100460 44